www.pogodaiklimat.ru

Погода и климат >> Архив погоды >> Норвегия >> Fagernes


ПОГОДА в Fagernes

  • Прогноз погоды в Fagernes
  • Монитор погоды в Fagernes
  • Климат города

АРХИВ ПОГОДЫ в Fagernes

Время (UTC), дата Ветер
(напр.,м/с)
 
Видим.   Явления Облачность Т
(С)
Тd
(С)
f
(%)
Тe
(С)
Тes
(С)
Комфортность P
(гПа)
Po
(гПа)
Тmin
(С)
Tmax
(С)
R
(мм)
R24
(мм)
S
(см)
13 15.02 В 2-5
{5}
н/о н/о -2.4 -5.2 81 -6 -6 1011.5 966.2
14 15.02 В 1-4
{5}
н/о н/о -2.3 -5.2 80 -4 -4 1011.1 965.9
15 15.02 СВ 2-4
{4}
3000 м слабый снег 10/6 100 м
[Frnb As op]
-2.5 -5.4 80 -6 -6 1011.1 965.8
16 15.02 В 1-3
{3}
н/о н/о -2.7 -5.3 82 -5 -5 1011.1 965.8
17 15.02 В 2-4
{5}
н/о н/о -3.0 -5.5 83 -7 -7 1011.3 966.0
18 15.02 С 1-3
{5}
3000 м слабый снег 10/5 200 м
[Frnb As op]
-3.3 -5.2 87 -6 -6 1011.5 966.1 -3.4 -1.7
19 15.02 СВ 1-3
{3}
н/о н/о -3.6 -5.0 90 -6 -6 1011.1 965.6
20 15.02 С 1-2
{2}
н/о н/о -3.5 -4.9 90 -6 -6 1011.0 965.6
21 15.02 штиль 0-1
{1}
н/о н/о -3.4 -4.6 91 -5 -5 1010.8 965.4
22 15.02 штиль 0
{1}
н/о н/о -3.4 -4.6 91 -5 -5 1010.7 965.4
23 15.02 штиль 0-1
{1}
н/о н/о -3.2 -4.4 91 -4 -4 1010.7 965.4
00 16.02 штиль 0
{3}
3000 м слабый снег 10/6 200 м
[Frnb As op]
-3.3 -4.5 91 -4 -4 1010.9 965.5
01 16.02 штиль 0-1
{1}
н/о н/о -3.3 -4.5 91 -4 -4 1011.0 965.6
02 16.02 штиль 0
{1}
н/о н/о -3.3 -4.8 89 -4 -4 1011.2 965.8
03 16.02 штиль 0
{1}
3000 м слабый снег 10/10 300 м
[Frnb]
-3.4 -4.9 89 -5 -5 1011.5 966.1
04 16.02 штиль 0-1
{1}
н/о н/о -3.5 -5.0 89 -5 -5 1011.9 966.4
05 16.02 штиль 0-1
{1}
н/о н/о -3.5 -5.0 89 -5 -5 1012.2 966.8
06 16.02 штиль 0
{1}
н/о н/о -4.1 -5.5 90 -5 -5 1012.6 967.1 -4.3 -3.2
07 16.02 штиль 0 н/о н/о -4.2 -5.4 91 -5 -5 1013.3 967.7
08 16.02 штиль 0 н/о н/о -5.0 -6.4 90 -6 -6 1014.1 968.3
09 16.02 штиль 0
{1}
10 км {снег} 10/10 600 м
[St]
-4.3 -5.7 90 -5 -5 1014.7 969.0
10 16.02 штиль 0 н/о н/о -4.5 -6.1 89 -6 -6 1015.4 969.6
11 16.02 штиль 0 н/о н/о -3.2 -5.4 85 -4 -4 1015.3 969.8
12 16.02 штиль 0
{1}
10 км {снег} 10/10 600 м
[St]
-3.4 -5.7 84 -4 -4 1015.8 970.2
13 16.02 штиль 0 н/о н/о -3.5 -5.7 85 -5 -5 1016.3 970.7
14 16.02 штиль 0 н/о н/о -3.3 -5.5 85 -4 -4 1016.5 970.8
15 16.02 штиль 0 н/о н/о -2.5 -4.7 85 -4 -4 1016.5 971.0
16 16.02 штиль 0 н/о н/о -3.0 -5.3 84 -4 -4 1017.1 971.5
17 16.02 штиль 0 н/о н/о -5.0 -6.6 89 -6 -6 1018.2 972.2
18 16.02 штиль 0 н/о н/о -5.7 -7.4 88 -7 -7 1018.9 972.8 -5.7 -2.4
19 16.02 штиль 0 н/о н/о -7.2 -8.3 92 -8 -8 1019.9 973.5
20 16.02 штиль 0 н/о н/о -7.8 -8.6 94 -9 -9 1020.5 974.0
21 16.02 штиль 0 н/о н/о -9.6 -10.8 91 -10 -10 1021.5 974.6
22 16.02 штиль 0 н/о н/о -10.4 -11.4 92 -11 -11 1022.1 975.0
23 16.02 штиль 0 н/о н/о -10.3 -11.2 93 -11 -11 1023.0 975.9
00 17.02 штиль 0 30 км 8/8 1000 м
[St]
-12.1 -13.5 89 -12 -12 1023.6 976.2
01 17.02 штиль 0-1
{1}
н/о н/о -11.5 -12.8 90 -12 -12 1024.0 976.7
02 17.02 штиль 0
{1}
н/о н/о -12.4 -13.9 89 -12 -12 1024.4 976.9
03 17.02 штиль 0
{1}
30 км 8/8 1000 м
[St]
-13.3 -14.8 88 -13 -13 1024.8 977.1
04 17.02 штиль 0 н/о н/о -13.6 -15.2 88 -14 -14 1025.0 977.2
05 17.02 штиль 0 н/о н/о -15.0 -16.5 88 -15 -15 1025.8 977.7
06 17.02 штиль 0
{1}
30 км 8/8 1000 м
[St]
-16.5 -18.0 88 -17 -17 1026.2 977.9 -17.5 -5.7
07 17.02 штиль 0 н/о н/о -16.0 -17.1 91 -16 -16 1026.2 977.9
08 17.02 штиль 0 н/о н/о -16.5 -18.2 87 -17 -17 1026.7 978.4
09 17.02 штиль 0 40 км 5/0
[]
-15.0 -16.9 85 -15 -14 1026.6 978.5
10 17.02 штиль 0 н/о н/о -13.9 -16.4 81 -14 -14 1026.3 978.5
11 17.02 штиль 0 н/о н/о -14.3 -17.7 75 -14 -14 1026.2 978.2
12 17.02 штиль 0 55 км 3/0
[]
-10.4 -12.9 82 -11 -9 1025.3 978.0
13 17.02 штиль 0 н/о н/о -10.4 -13.4 79 -11 -11 1025.2 978.0
14 17.02 штиль 0
{1}
н/о н/о -9.2 -13.3 72 -10 -10 1024.8 977.8
15 17.02 штиль 0 н/о н/о -9.9 -12.8 79 -10 -10 1024.8 977.7
16 17.02 штиль 0
{1}
н/о н/о -13.2 -15.1 86 -13 -13 1025.3 977.6
17 17.02 штиль 0 н/о н/о -14.2 -16.3 84 -14 -14 1025.8 977.9
18 17.02 штиль 0
{1}
55 км 1/0
[]
-14.3 -15.4 91 -14 -14 1025.9 978.0 -18.7 -6.4
19 17.02 штиль 0 н/о н/о -16.6 -18.3 87 -17 -17 1026.5 978.1
20 17.02 штиль 0 н/о н/о -17.3 -19.4 84 -17 -17 1026.6 978.1
21 17.02 штиль 0 н/о н/о -17.5 -19.3 86 -18 -18 1026.8 978.2
22 17.02 штиль 0 н/о н/о -18.3 -20.4 84 -18 -18 1026.7 978.0
23 17.02 штиль 0-1
{1}
н/о н/о -18.4 -20.3 85 -18 -18 1026.9 978.1
00 18.02 штиль 0
{1}
>70 км ясно -17.5 -19.3 86 -18 -18 1026.8 978.2
01 18.02 штиль 0
{1}
н/о н/о -15.7 -17.6 85 -16 -16 1026.4 978.2
02 18.02 штиль 0 н/о н/о -14.9 -16.6 87 -15 -15 1025.9 977.9
03 18.02 штиль 0 >70 км ясно -13.9 -15.5 88 -14 -14 1025.5 977.6
04 18.02 штиль 0 н/о н/о -13.1 -14.7 88 -13 -13 1024.9 977.2
05 18.02 штиль 0 н/о н/о -13.3 -14.9 88 -13 -13 1024.7 977.0
06 18.02 штиль 0
{1}
>70 км ясно -13.8 -15.4 88 -14 -14 1024.9 977.1 -19.7 -13.0
07 18.02 штиль 0 н/о н/о -14.2 -16.0 86 -14 -14 1024.9 977.1
08 18.02 штиль 0 н/о н/о -14.6 -16.7 84 -15 -15 1024.9 977.0
09 18.02 штиль 0
{1}
30 км 6/0
[Ac cuf Ci fib]
-14.4 -16.7 83 -14 -14 1024.7 976.8
10 18.02 штиль 0
{1}
н/о н/о -11.7 -14.0 83 -12 -12 1023.9 976.6
11 18.02 штиль 0 н/о н/о -10.8 -12.9 84 -11 -11 1023.6 976.4
12 18.02 штиль 0
{1}
н/о н/о -10.8 -13.3 82 -11 -11 1023.4 976.2
13 18.02 штиль 0 н/о н/о -9.3 -12.1 80 -10 -10 1022.9 975.9
14 18.02 штиль 0 н/о н/о -8.8 -12.0 78 -9 -9 1022.5 975.7
15 18.02 штиль 0 30 км 9/0
[Ac As]
-8.6 -11.5 80 -9 -9 1022.3 975.5
16 18.02 штиль 0
{1}
н/о н/о -9.7 -12.1 83 -10 -10 1022.3 975.3
17 18.02 штиль 0 н/о н/о -9.3 -10.9 88 -10 -10 1022.5 975.6
18 18.02 штиль 0-1
{1}
30 км 9/0
[Ac As]
-9.1 -10.9 87 -10 -10 1022.7 975.8 -15.2 -8.3
19 18.02 штиль 0
{1}
н/о н/о -10.3 -11.7 89 -11 -11 1023.0 975.9
20 18.02 штиль 0 н/о н/о -11.2 -12.4 91 -11 -11 1023.3 976.1
21 18.02 штиль 0 н/о н/о -13.2 -14.5 90 -13 -13 1024.1 976.5
22 18.02 штиль 0 н/о н/о -14.0 -15.5 88 -14 -14 1024.5 976.7
23 18.02 штиль 0 н/о н/о -14.5 -16.0 88 -15 -15 1024.9 977.0
00 19.02 штиль 0
{1}
>70 км 3/0
[]
-14.1 -15.6 88 -14 -14 1025.1 977.2
01 19.02 штиль 0 н/о н/о -12.1 -13.5 89 -12 -12 1024.8 977.3
02 19.02 штиль 0-1
{1}
н/о н/о -11.5 -12.9 89 -12 -12 1024.7 977.3
03 19.02 штиль 0 >70 км 1/0
[]
-11.1 -12.6 89 -11 -11 1024.7 977.4
04 19.02 штиль 0-1
{1}
н/о н/о -10.8 -12.2 89 -11 -11 1025.0 977.7
05 19.02 штиль 0 н/о н/о -10.9 -12.3 89 -11 -11 1025.4 978.1
06 19.02 штиль 0
{1}
>70 км 5/0
[Ci fib]
-10.6 -12.0 89 -11 -11 1025.8 978.6 -15.3
07 19.02 штиль 0
{1}
н/о н/о -10.6 -12.0 89 -11 -11 1026.5 979.2
08 19.02 штиль 0 н/о н/о -10.5 -12.0 89 -11 -11 1027.1 979.7
09 19.02 штиль 0-1
{1}
30 км слабый снег 10/10 1000 м
[Frnb]
-9.3 -11.0 87 -10 -10 1027.2 980.1
10 19.02 штиль 0
{1}
н/о н/о -8.4 -10.6 84 -9 -9 1027.5 980.5
11 19.02 штиль 0 н/о н/о -7.7 -10.5 80 -8 -8 1027.7 980.9
12 19.02 штиль 0
{1}
30 км слабый снег 10/10 1000 м
[Frnb]
-7.3 -9.7 83 -8 -8 1027.9 981.1
13 19.02 штиль 0-1
{1}
н/о н/о -6.9 -9.3 83 -8 -8 1028.0 981.3
14 19.02 штиль 0 н/о н/о -6.7 -9.0 84 -7 -7 1028.3 981.6
15 19.02 штиль 0 н/о н/о -6.3 -9.0 81 -7 -7 1028.4 981.7
16 19.02 штиль 0 н/о н/о -6.5 -8.5 86 -7 -7 1028.9 982.2
17 19.02 штиль 0 н/о н/о -6.6 -8.5 86 -7 -7 1029.3 982.5
18 19.02 штиль 0
{1}
н/о н/о -6.2 -7.8 88 -7 -7 1029.2 982.6 -10.8 -5.9
19 19.02 СВ 1-1
{2}
н/о н/о -6.2 -7.7 89 -9 -9 1029.2 982.5
20 19.02 штиль 0
{1}
н/о н/о -6.4 -7.9 89 -7 -7 1029.2 982.5
21 19.02 штиль 0 н/о н/о -6.5 -7.8 90 -7 -7 1029.1 982.4
22 19.02 штиль 0 н/о н/о -6.6 -7.9 90 -7 -7 1029.1 982.3
23 19.02 штиль 0-1
{1}
н/о н/о -4.7 -5.8 92 -6 -6 1028.8 982.4
00 20.02 штиль 0-1
{2}
20 км слабый снег 10/9 1000 м
[Frnb As op]
-4.0 -6.0 86 -5 -5 1028.6 982.3
01 20.02 штиль 0-1
{1}
н/о н/о -5.4 -7.1 88 -6 -6 1028.8 982.3
02 20.02 С 1-2
{2}
н/о н/о -4.4 -6.0 89 -7 -7 1028.2 981.8
03 20.02 СВ 1-2
{2}
н/о н/о -4.4 -6.0 89 -7 -7 1028.0 981.6
04 20.02 СВ 1-2
{2}
н/о н/о -4.5 -6.1 89 -7 -7 1027.8 981.5
05 20.02 СВ 1-2
{2}
н/о н/о -4.6 -6.1 89 -7 -7 1027.5 981.2
06 20.02 СВ 1-2
{3}
н/о н/о -4.7 -6.2 89 -7 -7 1027.3 981.0 -6.7 -4.0
07 20.02 В 1-2
{3}
н/о н/о -5.7 -7.4 88 -8 -8 1027.6 981.0
08 20.02 штиль 0
{2}
н/о н/о -6.0 -7.5 89 -7 -7 1027.9 981.3
09 20.02 штиль 0 30 км слабый снег 10/10 1000 м
[Frnb]
-5.4 -7.1 88 -6 -6 1027.9 981.5
10 20.02 ЮЗ 1-2
{2}
н/о н/о -5.8 -7.9 85 -8 -8 1028.1 981.5
11 20.02 штиль 0
{2}
н/о н/о -5.1 -8.3 78 -6 -6 1028.0 981.6
12 20.02 штиль 0
{3}
25 км слабый снег 10/10 600 м
[Frnb]
-4.5 -8.0 77 -5 -5 1027.9 981.6
13 20.02 штиль 0 н/о н/о -3.5 -8.3 69 -4 -4 1027.7 981.5
14 20.02 штиль 0 н/о н/о -2.8 -8.4 65 -4 -4 1027.2 981.2
15 20.02 штиль 0 25 км слабый снег 10/10 600 м
[Frnb]
-4.2 -9.3 68 -5 -5 1027.3 981.0
16 20.02 штиль 0 н/о н/о -7.9 -9.2 90 -9 -9 1028.1 981.2
17 20.02 штиль 0-1
{1}
н/о н/о -9.2 -10.3 92 -10 -10 1028.6 981.4
18 20.02 штиль 0-1
{1}
55 км 10/0
[Ac As]
-10.5 -11.7 91 -11 -11 1029.4 982.0 -11.1 -1.3
19 20.02 штиль 0 н/о н/о -12.1 -13.8 87 -12 -12 1029.7 982.0
20 20.02 штиль 0 н/о н/о -11.5 -12.8 90 -12 -12 1029.6 982.0
21 20.02 штиль 0-1
{1}
н/о н/о -11.6 -13.0 89 -12 -12 1029.6 982.0
22 20.02 штиль 0 н/о н/о -10.0 -11.4 89 -10 -10 1029.3 982.0
23 20.02 штиль 0 н/о н/о -10.0 -11.7 87 -10 -10 1029.1 981.8
00 21.02 штиль 0
{1}
20 км слабый снег 10/10 1000 м
[Frnb]
-9.5 -11.5 85 -10 -10 1028.6 981.4
01 21.02 штиль 0
{1}
н/о н/о -9.5 -11.2 87 -10 -10 1028.5 981.3
02 21.02 штиль 0 н/о н/о -9.4 -11.0 88 -10 -10 1027.9 980.8
03 21.02 штиль 0 20 км слабый снег 10/10 1000 м
[Frnb]
-9.5 -10.9 90 -10 -10 1027.5 980.4
04 21.02 штиль 0 н/о н/о -9.4 -10.8 90 -10 -10 1027.0 979.9
05 21.02 штиль 0 н/о н/о -10.5 -12.0 89 -11 -11 1026.9 979.6
06 21.02 штиль 0
{1}
30 км {снег} 10/8 1000 м
[Frnb Ac As]
-12.1 -13.6 89 -12 -12 1027.2 979.6 -12.9 -9.4
07 21.02 штиль 0 н/о н/о -11.7 -13.0 90 -12 -12 1027.2 979.7
08 21.02 штиль 0 н/о н/о -12.5 -14.0 89 -13 -13 1027.8 980.1
09 21.02 штиль 0 30 км 10/0
[As trans Ci fib]
-10.7 -13.9 77 -11 -10 1027.8 980.4
10 21.02 штиль 0
{1}
н/о н/о -11.4 -13.5 84 -12 -12 1028.1 980.6
11 21.02 штиль 0 н/о н/о -10.1 -13.6 75 -10 -10 1027.9 980.6
12 21.02 штиль 0-1
{1}
30 км 10/0
[As trans Ci fib]
-6.3 -13.7 56 -7 -4 1027.2 980.6
13 21.02 штиль 0 н/о н/о -7.8 -13.7 63 -8 -8 1027.4 980.5
14 21.02 штиль 0
{2}
н/о н/о -7.8 -12.6 68 -8 -8 1027.5 980.7
15 21.02 штиль 0
{2}
30 км 10/0
[As trans Ci fib]
-9.9 -15.2 65 -10 -10 1027.9 980.7
16 21.02 штиль 0 н/о н/о -11.2 -13.5 83 -11 -11 1028.4 980.9
17 21.02 штиль 0 н/о н/о -13.6 -15.4 86 -14 -14 1029.2 981.3
18 21.02 штиль 0
{2}
>70 км 3/0
[]
-12.6 -13.4 94 -13 -13 1029.8 982.0 -15.7 -5.5
19 21.02 штиль 0
{1}
н/о н/о -16.4 -18.4 84 -16 -16 1031.2 982.6
20 21.02 штиль 0 н/о н/о -13.7 -15.1 89 -14 -14 1031.4 983.3
21 21.02 штиль 0 н/о н/о -16.0 -18.0 85 -16 -16 1032.4 983.9
22 21.02 штиль 0 н/о н/о -15.7 -17.1 89 -16 -16 1032.4 983.9
23 21.02 штиль 0 н/о н/о -18.1 -20.4 82 -18 -18 1033.4 984.4
00 22.02 штиль 0
{1}
н/о н/о -18.3 -20.4 84 -18 -18 1033.8 984.8
01 22.02 штиль 0 н/о н/о -18.5 -20.6 83 -19 -19 1034.2 985.2
02 22.02 штиль 0 н/о н/о -20.8 -23.2 81 -21 -21 1034.8 985.2
03 22.02 штиль 0 н/о н/о -17.3 -19.0 87 -17 -17 1034.3 985.4
04 22.02 штиль 0 н/о н/о -18.3 -20.2 85 -18 -18 1034.5 985.4
05 22.02 штиль 0 н/о н/о -18.9 -21.0 83 -19 -19 1034.9 985.7
06 22.02 штиль 0 30 км 3/0
[]
-19.1 -21.3 83 -19 -19 1034.9 985.7 -20.8 -12.1
07 22.02 штиль 0 н/о н/о -19.6 -21.8 83 -20 -20 1035.3 986.0
08 22.02 штиль 0 н/о н/о -18.2 -20.0 86 -18 -18 1035.2 986.1
09 22.02 штиль 0 н/о н/о -17.2 -19.0 86 -17 -17 1035.0 986.1
10 22.02 штиль 0 н/о н/о -15.8 -17.8 85 -16 -16 1034.4 985.8
11 22.02 штиль 0 н/о н/о -13.7 -16.3 81 -14 -14 1033.5 985.3
12 22.02 штиль 0 н/о н/о -11.9 -14.9 78 -12 -12 1032.8 985.0

 

Местоположение метеостанции Fagernes (Норвегия): широта 60.99 долгота 9.24 высота над уровнем моря 365 м.

В архиве по умолчанию представлена погода в Fagernes за последнюю неделю. Архивные данные за месяц целиком и за предыдущие месяцы, начиная с января 2011 года, Вы можете получить, выбрав интересующий диапазон дат из раскрывающегося списка и нажав кнопку "Ввод!".

Внимание! Время в таблицах - всемирное. Для получения местного времени необходимо прибавить поправку, которая в Fagernes равна 1 ч.

Смотрите также архив погоды в соседних городах и на ближайших метеорологических станциях:

Погода в Fagernes Lufthavn (Норвегия) (4 км)
Погода в Loken i Volbu (Норвегия) (17 км)
Погода в Beitostolen II (Норвегия) (34 км)
Погода в Hemsedal II (Норвегия) (38 км)
Погода в Hemsedal-Hollekolten (Норвегия) (41 км)
Погода в Vest-Torpa II (Норвегия) (43 км)
Погода в Nesbyen-Todokk (Норвегия) (47 км)
Погода в Skabu (Норвегия) (61 км)
Погода в Filefjell-Kyrkjestolane (Норвегия) (64 км)
Погода в Lillehammer (Норвегия) (68 км)

Пояснения к столбцам:

Ветер - указаны скорость ветра в м/с - средняя за 10 мин, порывы в срок и между сроками (в фигурных скобках) и направление, откуда дует ветер: С - северный, СВ - северо-восточный, В - восточный, ЮВ - юго-восточный, Ю - южный, ЮЗ - юго-западный, З - западный, СЗ - северо-западный.
Видимость - горизонтальная дальность видимости в метрах или километрах. При видимости от 1 до 10 км при отсутствии осадков обычно наблюдается дымка, при ухудшении видимости до 1 км и менее - туман. В сухую погоду видимость может ухудшаться дымом, пылью или мглою.
Явления - указаны атмосферные явления, наблюдавшиеся в срок или в последний час перед сроком; фигурными скобками обозначены явления, наблюдавшиеся между сроками (за 1-3 часа до срока); квадратными скобками обозначены град или гололедные отложения с указанием их диаметра в мм.
Облачность - указаны через наклонную черту общая и нижняя облачность в баллах и высота нижней границы облаков в метрах; квадратными скобками обозначены формы облаков: Ci - перистые, Cs - перисто-слоистые, Cc - перисто-кучевые, Ac - высококучевые, As - высокослоистые, Sc - слоисто-кучевые, Ns - слоисто-дождевые, Cu - кучевые, Cb - кучево-дождевые. Подробнее классификацию облаков см. в Атласе облаков (PDF).
T - Температура воздуха - температура, измеренная на высоте 2 м над землей.
Td - Температура точки росы - температура, при понижении до которой содержащийся в воздухе водяной пар достигнет насыщения.
f - Относительная влажность воздуха - влажноcть воздуха, измеренная на высоте 2 м над землей.
Te - Эффективная температура - температура, которую ощущает одетый по сезону человек в тени. Характеристика душности погоды. При расчете учитывается влияние влажности воздуха и скорости ветра на теплоощущения человека.
Tes - Эффективная температура на солнце - температура, которую ощущает человек, с поправкой на солнечный нагрев. Характеристика знойности погоды. Зависит от высоты солнца над горизонтом, облачности и скорости ветра. Ночью, в пасмурную погоду, а также при ветре 12 м/с и более поправка равна нулю.
P - Атмосферное давление - приведенное к уровню моря атмосферное давление.
Po - Атмосферное давление - измеренное на уровне метеостанции атмосферное давление.
Tmin - Минимальная температура - минимум температуры воздуха на высоте 2 м над землей.
Tmax - Максимальная температура - максимум температуры воздуха на высоте 2 м над землей.
R - Количество осадков - Количество выпавших осадков за период времени, мм. При наведении курсора мыши на число - период времени, за который выпало указанное количество осадков.
R24 - Количество осадков - Количество выпавших осадков за 24 часа, мм.
S - Снежный покров - Высота снежного покрова, см. При наведении курсора мыши на число - состояние снежного покрова и степень покрытия местности в баллах.